Location: ???????
(54.9567°N, 38.2836°E)
Time: 17:51:05
(UTC+00:00)

ALOS - Pass Details

Date: 14 April 2024
Orbit: 674 x 675 km, 98.0° (Epoch: 24 May)

Event Time Altitude Azimuth Distance (km) Brightness Sun altitude
Rises 01:40:20 0° 9° (N) 3,049 6.2 -6.8°
Reaches altitude 10° 01:42:48 10° 359° (N) 2,130 5.2 -6.5°
Maximum altitude 01:46:46 29° 300° (WNW) 1,249 3.4 -6.0°
Drops below altitude 10° 01:50:43 10° 241° (WSW) 2,116 4.1 -5.5°
Enters shadow 01:51:36 - 236° (WSW) 2,429 4.4 -5.4°
